"Period start","avg(HW err(1)/warn(2) (#))","avg(Visibility (m))","avg(Weather code (#))","avg(Precip intensity (mm/h))","min(HW err(1)/warn(2) (#))","max(HW err(1)/warn(2) (#))","std(HW err(1)/warn(2) (#))","med(HW err(1)/warn(2) (#))","min(Visibility (m))","max(Visibility (m))","std(Visibility (m))","med(Visibility (m))","min(Weather code (#))","max(Weather code (#))","std(Weather code (#))","med(Weather code (#))","min(Precip intensity (mm/h))","max(Precip intensity (mm/h))","std(Precip intensity (mm/h))","med(Precip intensity (mm/h))"
2016-04-24 00:00:00,2,11363,64,0.24,2,2,0,2,4870,25098,5476,10192,0,71,21,71,0.00,0.65,0.20,0.17
2016-04-24 00:10:00,2,10501,71,0.31,2,2,0,2,4953,19223,4270,8771,71,71,0,71,0.00,0.85,0.24,0.30
2016-04-24 00:20:00,2,7970,71,0.68,2,2,0,2,1034,42897,11959,3622,71,71,0,71,0.00,2.25,0.62,0.50
2016-04-24 00:30:00,2,1659,71,2.04,2,2,0,2,908,2561,565,1838,71,71,0,71,0.85,3.40,0.84,1.98
2016-04-24 00:40:00,2,14987,57,0.38,2,2,0,2,1437,33232,10173,13800,0,71,28,71,0.00,1.75,0.52,0.18
2016-04-24 00:50:00,2,27040,0,0.00,2,2,0,2,13009,46155,9883,22962,0,0,0,0,0.00,0.00,0.00,0.00
2016-04-24 01:00:00,2,12958,64,0.16,2,2,0,2,3940,29253,6970,13131,0,71,21,71,0.00,0.50,0.20,0.05
2016-04-24 01:10:00,2,23486,65,0.02,2,2,0,2,11773,43328,10669,18132,0,77,22,71,0.00,0.10,0.03,0.00
2016-04-24 01:20:00,2,29406,0,0.00,2,2,0,2,13662,42703,9138,28741,0,0,0,0,0.00,0.00,0.00,0.00
2016-04-24 01:30:00,2,23214,0,0.00,2,2,0,2,12178,35173,6500,22346,0,0,0,0,0.00,0.00,0.00,0.00
2016-04-24 01:40:00,2,27400,0,0.00,2,2,0,2,18151,41033,6792,25610,0,0,0,0,0.00,0.00,0.00,0.00
2016-04-24 01:50:00,2,28817,0,0.00,2,2,0,2,19046,41251,6042,29471,0,0,0,0,0.00,0.00,0.00,0.00
2016-04-24 02:00:00,2,31565,0,0.00,2,2,0,2,19626,42650,6411,31354,0,0,0,0,0.00,0.00,0.00,0.00
2016-04-24 02:10:00,2,24626,0,0.00,2,2,0,2,18226,38483,5816,22098,0,0,0,0,0.00,0.00,0.00,0.00
2016-04-24 02:20:00,2,26207,0,0.00,2,2,0,2,20565,30653,2927,26924,0,0,0,0,0.00,0.00,0.00,0.00
2016-04-24 02:30:00,2,32613,0,0.00,2,2,0,2,16985,49913,9824,34048,0,0,0,0,0.00,0.00,0.00,0.00
2016-04-24 02:40:00,2,29047,0,0.00,2,2,0,2,19221,38212,6182,27744,0,0,0,0,0.00,0.00,0.00,0.00
2016-04-24 02:50:00,2,27122,0,0.00,2,2,0,2,14056,38997,7691,28304,0,0,0,0,0.00,0.00,0.00,0.00
2016-04-24 03:00:00,2,30611,0,0.00,2,2,0,2,23194,38346,5039,29874,0,0,0,0,0.00,0.00,0.00,0.00
2016-04-24 03:10:00,1,19213,0,0.00,0,2,1,2,15831,25126,2963,18394,0,0,0,0,0.00,0.00,0.00,0.00
2016-04-24 03:20:00,0,21613,0,0.00,0,0,0,0,16420,27117,3160,21235,0,0,0,0,0.00,0.00,0.00,0.00
2016-04-24 03:30:00,0,23866,0,0.00,0,0,0,0,17898,31011,4151,22953,0,0,0,0,0.00,0.00,0.00,0.00
2016-04-24 03:40:00,0,23964,0,0.00,0,0,0,0,13213,40223,8747,22232,0,0,0,0,0.00,0.00,0.00,0.00
2016-04-24 03:50:00,0,20711,0,0.00,0,0,0,0,13451,33005,5129,20277,0,0,0,0,0.00,0.00,0.00,0.00
2016-04-24 04:00:00,0,19507,0,0.00,0,0,0,0,14970,25234,3408,18248,0,0,0,0,0.00,0.00,0.00,0.00
2016-04-24 04:10:00,0,22453,0,0.00,0,0,0,0,14775,32174,5043,22632,0,0,0,0,0.00,0.00,0.00,0.00
2016-04-24 04:20:00,0,18905,0,0.00,0,0,0,0,14039,26433,3950,18670,0,0,0,0,0.00,0.00,0.00,0.00
2016-04-24 04:30:00,0,21680,0,0.00,0,0,0,0,15015,28532,4357,21635,0,0,0,0,0.00,0.00,0.00,0.00
2016-04-24 04:40:00,0,26639,0,0.00,0,0,0,0,20627,35515,5002,24729,0,0,0,0,0.00,0.00,0.00,0.00
2016-04-24 04:50:00,0,27616,0,0.00,0,0,0,0,21740,34097,4034,27980,0,0,0,0,0.00,0.00,0.00,0.00
2016-04-24 05:00:00,1,30771,0,0.00,0,2,1,0,18538,40259,7898,33440,0,0,0,0,0.00,0.00,0.00,0.00
2016-04-24 05:10:00,1,26977,0,0.00,0,2,1,1,18761,42573,6717,27498,0,0,0,0,0.00,0.00,0.00,0.00
2016-04-24 05:20:00,1,31525,0,0.00,0,2,1,1,14822,50000,13091,30428,0,0,0,0,0.00,0.00,0.00,0.00
2016-04-24 05:30:00,0,28086,0,0.00,0,0,0,0,21235,33232,3988,28814,0,0,0,0,0.00,0.00,0.00,0.00
2016-04-24 05:40:00,0,28914,0,0.00,0,0,0,0,21785,45311,6079,27029,0,0,0,0,0.00,0.00,0.00,0.00
2016-04-24 05:50:00,2,27226,0,0.00,0,2,1,2,20136,42873,6839,25350,0,0,0,0,0.00,0.00,0.00,0.00
2016-04-24 06:00:00,2,30250,0,0.00,2,2,0,2,23422,35236,4562,31968,0,0,0,0,0.00,0.00,0.00,0.00
2016-04-24 06:10:00,2,26725,0,0.00,2,2,0,2,21334,31375,3268,27650,0,0,0,0,0.00,0.00,0.00,0.00
2016-04-24 06:20:00,2,27486,0,0.00,0,2,1,2,18602,33178,4360,28126,0,0,0,0,0.00,0.00,0.00,0.00
2016-04-24 06:30:00,2,26072,0,0.00,2,2,0,2,20315,31298,3804,25206,0,0,0,0,0.00,0.00,0.00,0.00
2016-04-24 06:40:00,2,35450,0,0.00,2,2,0,2,21779,46720,9098,37104,0,0,0,0,0.00,0.00,0.00,0.00
2016-04-24 06:50:00,2,22718,0,0.00,2,2,0,2,17580,32607,4134,21682,0,0,0,0,0.00,0.00,0.00,0.00
2016-04-24 07:00:00,2,27712,0,0.00,2,2,0,2,19856,42755,6104,26394,0,0,0,0,0.00,0.00,0.00,0.00
2016-04-24 07:10:00,2,29168,0,0.00,2,2,0,2,24359,33590,2514,28962,0,0,0,0,0.00,0.00,0.00,0.00
2016-04-24 07:20:00,2,30783,0,0.00,2,2,0,2,20154,41046,5369,31977,0,0,0,0,0.00,0.00,0.00,0.00
2016-04-24 07:30:00,2,29482,0,0.00,2,2,0,2,22912,35960,3233,29676,0,0,0,0,0.00,0.00,0.00,0.00
2016-04-24 07:40:00,2,30178,0,0.00,2,2,0,2,22397,40206,5572,31202,0,0,0,0,0.00,0.00,0.00,0.00
2016-04-24 07:50:00,2,35417,0,0.00,2,2,0,2,21310,50000,8799,37182,0,0,0,0,0.00,0.00,0.00,0.00
2016-04-24 08:00:00,2,35228,0,0.00,2,2,0,2,24421,43527,6132,35692,0,0,0,0,0.00,0.00,0.00,0.00
2016-04-24 08:10:00,2,45469,0,0.00,2,2,0,2,31068,50000,6264,48928,0,0,0,0,0.00,0.00,0.00,0.00
2016-04-24 08:20:00,2,44604,0,0.00,2,2,0,2,31892,50000,5666,45266,0,0,0,0,0.00,0.00,0.00,0.00
2016-04-24 08:30:00,2,35535,0,0.00,2,2,0,2,29534,44770,5128,33988,0,0,0,0,0.00,0.00,0.00,0.00
2016-04-24 08:40:00,2,32231,0,0.00,2,2,0,2,23459,46539,7744,30445,0,0,0,0,0.00,0.00,0.00,0.00
2016-04-24 08:50:00,2,28187,0,0.00,2,2,0,2,23562,33127,2574,28640,0,0,0,0,0.00,0.00,0.00,0.00
2016-04-24 09:00:00,2,32066,0,0.00,2,2,0,2,26749,37773,3063,31356,0,0,0,0,0.00,0.00,0.00,0.00
2016-04-24 09:10:00,2,25055,0,0.00,2,2,0,2,18705,31408,3496,25346,0,0,0,0,0.00,0.00,0.00,0.00
2016-04-24 09:20:00,2,33458,0,0.00,2,2,0,2,23164,45323,7468,31900,0,0,0,0,0.00,0.00,0.00,0.00
2016-04-24 09:30:00,2,36547,0,0.00,2,2,0,2,26047,43884,5639,38516,0,0,0,0,0.00,0.00,0.00,0.00
2016-04-24 09:40:00,2,36616,0,0.00,2,2,0,2,22347,47639,7938,36928,0,0,0,0,0.00,0.00,0.00,0.00
2016-04-24 09:50:00,2,33964,0,0.00,2,2,0,2,27764,41467,4202,32883,0,0,0,0,0.00,0.00,0.00,0.00
2016-04-24 10:00:00,2,34579,0,0.00,2,2,0,2,25391,50000,8048,30804,0,0,0,0,0.00,0.00,0.00,0.00
2016-04-24 10:10:00,2,35699,0,0.00,2,2,0,2,28561,45727,5336,33718,0,0,0,0,0.00,0.00,0.00,0.00
2016-04-24 10:20:00,2,30951,0,0.00,2,2,0,2,21670,41913,6937,30212,0,0,0,0,0.00,0.00,0.00,0.00
2016-04-24 10:30:00,2,40140,0,0.00,2,2,0,2,31767,47862,5105,40316,0,0,0,0,0.00,0.00,0.00,0.00
2016-04-24 10:40:00,2,37525,0,0.00,2,2,0,2,27279,46884,6131,36726,0,0,0,0,0.00,0.00,0.00,0.00
2016-04-24 10:50:00,2,40523,0,0.00,2,2,0,2,30924,46490,4087,41150,0,0,0,0,0.00,0.00,0.00,0.00
2016-04-24 11:00:00,2,42515,0,0.00,2,2,0,2,37754,48565,3504,42765,0,0,0,0,0.00,0.00,0.00,0.00
2016-04-24 11:10:00,2,37358,0,0.00,2,2,0,2,28322,46327,5065,39420,0,0,0,0,0.00,0.00,0.00,0.00
2016-04-24 11:20:00,2,36680,0,0.00,2,2,0,2,22733,45807,6896,37056,0,0,0,0,0.00,0.00,0.00,0.00
2016-04-24 11:30:00,2,32909,0,0.00,2,2,0,2,26837,41580,3724,32946,0,0,0,0,0.00,0.00,0.00,0.00
2016-04-24 11:40:00,2,38715,0,0.00,2,2,0,2,27089,47085,6976,41151,0,0,0,0,0.00,0.00,0.00,0.00
2016-04-24 11:50:00,2,31156,0,0.00,2,2,0,2,28262,33445,1850,31121,0,0,0,0,0.00,0.00,0.00,0.00
2016-04-24 12:00:00,2,30791,0,0.00,2,2,0,2,26587,33423,2043,30851,0,0,0,0,0.00,0.00,0.00,0.00
2016-04-24 12:10:00,2,31106,0,0.00,2,2,0,2,25918,35173,3092,32196,0,0,0,0,0.00,0.00,0.00,0.00
2016-04-24 12:20:00,2,37422,0,0.00,2,2,0,2,30867,40716,3006,38084,0,0,0,0,0.00,0.00,0.00,0.00
2016-04-24 12:30:00,2,34202,0,0.00,2,2,0,2,29052,39281,3436,33772,0,0,0,0,0.00,0.00,0.00,0.00
2016-04-24 12:40:00,2,33719,0,0.00,2,2,0,2,30508,38438,2127,33220,0,0,0,0,0.00,0.00,0.00,0.00
2016-04-24 12:50:00,2,33452,0,0.00,2,2,0,2,28863,38570,3548,33752,0,0,0,0,0.00,0.00,0.00,0.00
2016-04-24 13:00:00,2,34200,0,0.00,2,2,0,2,30725,37226,1953,33920,0,0,0,0,0.00,0.00,0.00,0.00
2016-04-24 13:10:00,2,29999,0,0.00,2,2,0,2,24589,35826,3485,30176,0,0,0,0,0.00,0.00,0.00,0.00
2016-04-24 13:20:00,2,32668,0,0.00,2,2,0,2,11913,43386,8939,36696,0,0,0,0,0.00,0.00,0.00,0.00
2016-04-24 13:30:00,2,28377,0,0.00,2,2,0,2,23540,32443,2781,29661,0,0,0,0,0.00,0.00,0.00,0.00
2016-04-24 13:40:00,2,23218,12,0.01,2,2,0,2,18952,26707,2694,23538,0,41,19,0,0.00,0.10,0.03,0.00
2016-04-24 13:50:00,2,25451,0,0.00,2,2,0,2,21779,30154,2512,25156,0,0,0,0,0.00,0.00,0.00,0.00
2016-04-24 14:00:00,2,23210,0,0.00,2,2,0,2,18503,27742,2640,23054,0,0,0,0,0.00,0.00,0.00,0.00
2016-04-24 14:10:00,2,19884,0,0.00,2,2,0,2,15905,23897,2462,19984,0,0,0,0,0.00,0.00,0.00,0.00
2016-04-24 14:20:00,2,15872,0,0.00,2,2,0,2,10341,24643,4247,14963,0,0,0,0,0.00,0.00,0.00,0.00
2016-04-24 14:30:00,2,10649,18,0.00,2,2,0,2,7493,13292,1769,10926,0,71,29,0,0.00,0.00,0.00,0.00
2016-04-24 14:40:00,2,12272,0,0.00,2,2,0,2,11127,13808,890,12076,0,0,0,0,0.00,0.00,0.00,0.00
2016-04-24 14:50:00,2,17734,0,0.00,2,2,0,2,11404,24633,4207,17889,0,0,0,0,0.00,0.00,0.00,0.00
2016-04-24 15:00:00,2,25426,0,0.00,2,2,0,2,8342,32255,7392,28580,0,0,0,0,0.00,0.00,0.00,0.00
2016-04-24 15:10:00,2,27640,42,0.01,2,2,0,2,23066,32034,2352,27755,0,77,31,41,0.00,0.05,0.02,0.00
2016-04-24 15:20:00,2,29196,0,0.00,2,2,0,2,25908,33112,2313,29609,0,0,0,0,0.00,0.00,0.00,0.00
2016-04-24 15:30:00,2,22288,0,0.00,2,2,0,2,19719,24557,1424,22256,0,0,0,0,0.00,0.00,0.00,0.00
2016-04-24 15:40:00,2,27850,0,0.00,2,2,0,2,23030,31938,2720,28614,0,0,0,0,0.00,0.00,0.00,0.00
2016-04-24 15:50:00,2,35362,0,0.00,2,2,0,2,25243,43266,6079,36914,0,0,0,0,0.00,0.00,0.00,0.00
2016-04-24 16:00:00,2,30878,0,0.00,2,2,0,2,21942,38349,4676,31112,0,0,0,0,0.00,0.00,0.00,0.00
2016-04-24 16:10:00,2,47955,0,0.00,2,2,0,2,41985,50000,2846,49564,0,0,0,0,0.00,0.00,0.00,0.00
2016-04-24 16:20:00,2,44292,0,0.00,2,2,0,2,39634,47873,2435,44476,0,0,0,0,0.00,0.00,0.00,0.00
2016-04-24 16:30:00,2,48398,0,0.00,2,2,0,2,44675,50000,1936,49550,0,0,0,0,0.00,0.00,0.00,0.00
2016-04-24 16:40:00,2,48025,0,0.00,2,2,0,2,44255,50000,1832,48485,0,0,0,0,0.00,0.00,0.00,0.00
2016-04-24 16:50:00,2,47132,0,0.00,2,2,0,2,41004,50000,3022,48394,0,0,0,0,0.00,0.00,0.00,0.00
2016-04-24 17:00:00,2,49295,0,0.00,2,2,0,2,45155,50000,1457,50000,0,0,0,0,0.00,0.00,0.00,0.00
2016-04-24 17:10:00,2,33701,0,0.00,2,2,0,2,26954,42842,4820,32442,0,0,0,0,0.00,0.00,0.00,0.00
2016-04-24 17:20:00,2,31025,0,0.00,2,2,0,2,27727,38752,3260,29991,0,0,0,0,0.00,0.00,0.00,0.00
2016-04-24 17:30:00,2,37176,0,0.00,2,2,0,2,31014,43969,3789,37560,0,0,0,0,0.00,0.00,0.00,0.00
2016-04-24 17:40:00,2,34631,0,0.00,2,2,0,2,30594,37448,1976,34874,0,0,0,0,0.00,0.00,0.00,0.00
2016-04-24 17:50:00,2,40412,0,0.00,2,2,0,2,28695,50000,6382,39210,0,0,0,0,0.00,0.00,0.00,0.00
2016-04-24 18:00:00,2,49424,0,0.00,2,2,0,2,45089,50000,1464,50000,0,0,0,0,0.00,0.00,0.00,0.00
2016-04-24 18:10:00,2,48530,0,0.00,2,2,0,2,45360,50000,2071,50000,0,0,0,0,0.00,0.00,0.00,0.00
2016-04-24 18:20:00,2,50000,0,0.00,2,2,0,2,50000,50000,0,50000,0,0,0,0,0.00,0.00,0.00,0.00
2016-04-24 18:30:00,2,50000,0,0.00,2,2,0,2,50000,50000,0,50000,0,0,0,0,0.00,0.00,0.00,0.00
2016-04-24 18:40:00,2,50000,0,0.00,2,2,0,2,50000,50000,0,50000,0,0,0,0,0.00,0.00,0.00,0.00
2016-04-24 18:50:00,2,49931,0,0.00,2,2,0,2,49312,50000,206,50000,0,0,0,0,0.00,0.00,0.00,0.00
2016-04-24 19:00:00,2,49856,0,0.00,2,2,0,2,48559,50000,432,50000,0,0,0,0,0.00,0.00,0.00,0.00
2016-04-24 19:10:00,2,46462,0,0.00,2,2,0,2,29865,50000,6372,50000,0,0,0,0,0.00,0.00,0.00,0.00
2016-04-24 19:20:00,2,50000,0,0.00,2,2,0,2,50000,50000,0,50000,0,0,0,0,0.00,0.00,0.00,0.00
2016-04-24 19:30:00,2,49957,0,0.00,2,2,0,2,49574,50000,128,50000,0,0,0,0,0.00,0.00,0.00,0.00
2016-04-24 19:40:00,2,49840,0,0.00,2,2,0,2,48403,50000,479,50000,0,0,0,0,0.00,0.00,0.00,0.00
2016-04-24 19:50:00,2,49764,0,0.00,2,2,0,2,47913,50000,622,50000,0,0,0,0,0.00,0.00,0.00,0.00
2016-04-24 20:00:00,2,49875,0,0.00,2,2,0,2,49219,50000,259,50000,0,0,0,0,0.00,0.00,0.00,0.00
2016-04-24 20:10:00,2,49563,0,0.00,2,2,0,2,47508,50000,884,50000,0,0,0,0,0.00,0.00,0.00,0.00
2016-04-24 20:20:00,2,49943,0,0.00,2,2,0,2,49429,50000,171,50000,0,0,0,0,0.00,0.00,0.00,0.00
2016-04-24 20:30:00,2,49757,0,0.00,2,2,0,2,48523,50000,500,50000,0,0,0,0,0.00,0.00,0.00,0.00
2016-04-24 20:40:00,2,47178,0,0.00,2,2,0,2,38580,50000,3900,48766,0,0,0,0,0.00,0.00,0.00,0.00
2016-04-24 20:50:00,2,49740,0,0.00,2,2,0,2,47800,50000,658,50000,0,0,0,0,0.00,0.00,0.00,0.00
2016-04-24 21:00:00,2,48822,0,0.00,2,2,0,2,43768,50000,2349,50000,0,0,0,0,0.00,0.00,0.00,0.00
2016-04-24 21:10:00,2,49867,0,0.00,2,2,0,2,48666,50000,400,50000,0,0,0,0,0.00,0.00,0.00,0.00
2016-04-24 21:20:00,2,50000,0,0.00,2,2,0,2,50000,50000,0,50000,0,0,0,0,0.00,0.00,0.00,0.00
2016-04-24 21:30:00,2,50000,0,0.00,2,2,0,2,50000,50000,0,50000,0,0,0,0,0.00,0.00,0.00,0.00
2016-04-24 21:40:00,2,50000,0,0.00,2,2,0,2,50000,50000,0,50000,0,0,0,0,0.00,0.00,0.00,0.00
2016-04-24 21:50:00,2,47870,0,0.00,2,2,0,2,39467,50000,3275,50000,0,0,0,0,0.00,0.00,0.00,0.00
2016-04-24 22:00:00,2,47804,0,0.00,2,2,0,2,39509,50000,3755,50000,0,0,0,0,0.00,0.00,0.00,0.00
2016-04-24 22:10:00,2,48540,0,0.00,2,2,0,2,39197,50000,3236,50000,0,0,0,0,0.00,0.00,0.00,0.00
2016-04-24 22:20:00,2,49331,0,0.00,2,2,0,2,46172,50000,1171,50000,0,0,0,0,0.00,0.00,0.00,0.00
2016-04-24 22:30:00,2,48503,0,0.00,2,2,0,2,43043,50000,2456,50000,0,0,0,0,0.00,0.00,0.00,0.00
2016-04-24 22:40:00,2,49544,0,0.00,2,2,0,2,46694,50000,990,50000,0,0,0,0,0.00,0.00,0.00,0.00
2016-04-24 22:50:00,2,47814,0,0.00,2,2,0,2,36699,50000,4034,49978,0,0,0,0,0.00,0.00,0.00,0.00
2016-04-24 23:00:00,2,47037,0,0.00,2,2,0,2,41590,50000,3326,48857,0,0,0,0,0.00,0.00,0.00,0.00
2016-04-24 23:10:00,2,47173,0,0.00,2,2,0,2,38061,50000,3813,49134,0,0,0,0,0.00,0.00,0.00,0.00
2016-04-24 23:20:00,2,48128,0,0.00,2,2,0,2,43345,50000,2215,48992,0,0,0,0,0.00,0.00,0.00,0.00
2016-04-24 23:30:00,2,48280,0,0.00,2,2,0,2,43179,50000,2569,50000,0,0,0,0,0.00,0.00,0.00,0.00
2016-04-24 23:40:00,2,47481,0,0.00,2,2,0,2,40412,50000,3398,50000,0,0,0,0,0.00,0.00,0.00,0.00
2016-04-24 23:50:00,2,40969,0,0.00,2,2,0,2,32058,50000,6217,41216,0,0,0,0,0.00,0.00,0.00,0.00
